Telfer Airport, Australia

10:51 AM AWST on August 30, 2016 (GMT +0800)
Telfer

Weather History for YTEF - November, 2012

Change the Weather History Date:

Friday, November 9, 2012

  Actual Average Record
Temperature  
Mean Temperature 85 °F -  
Max Temperature 99 °F - - ()
Min Temperature 71 °F - - ()
Cooling Degree Days 20    
Growing Degree Days 35 (Base 50)    
Moisture  
Dew Point 26 °F    
Average Humidity 10    
Maximum Humidity 20    
Minimum Humidity 4    
Precipitation  
Precipitation 0.00 in - - ()
Sea Level Pressure  
Sea Level Pressure 29.89 in    
Wind  
Wind Speed 15 mph ()    
Max Wind Speed 24 mph    
Max Gust Speed 26 mph    
T = Trace of Precipitation, MM = Missing Value Source: Averaged Metar Reports

Daily Weather History Graph

Daily Weather History Graph

Search for Another Location

Airport or City:

Trip Planner

Search our weather history database for the weather conditions in past years. The results will help you decide how hot, cold, wet, or windy it might be!

Date:

Astronomy

Nov. 09, 2012 Rise Set
Actual Time 5:03 AM AWST 6:06 PM AWST
Civil Twilight 4:39 AM AWST 6:30 PM AWST
Nautical Twilight 4:11 AM AWST 6:58 PM AWST
Astronomical Twilight 3:43 AM AWST 7:27 PM AWST
Moon 1:12 AM AWST (11/9) 1:25 PM AWST (11/9)
Length of Visible Light 13h 50m
Length of Day
13h 03m
Waning Crescent, 28% of the Moon is Illuminated
Nov 9
Waning Crescent
Nov 14
New
Nov 20
First Quarter
Nov 28
Full
Dec 6
Last Quarter

Hourly Weather History & Observations

Time (AWST) Temp. Dew Point Humidity Pressure Visibility Wind Dir Wind Speed Gust Speed Precip Events Conditions
12:00 AM 77 °F 22 °F 6% 29.87 in - SSE 16.1 mph - -  
12:00 AM 77.0 °F 23.0 °F 13% 29.92 in - SSE 16.1 mph - N/A   Unknown
1:00 AM 75.2 °F 23.0 °F 14% 29.92 in - SE 16.1 mph - N/A   Unknown
2:00 AM 75 °F 24 °F 7% 29.86 in - SE 16.1 mph - -  
2:00 AM 75.2 °F 24.8 °F 15% 29.92 in - SE 16.1 mph - N/A   Unknown
3:00 AM 75 °F 27 °F 9% 29.87 in - SE 18.4 mph - -  
3:00 AM 75.2 °F 26.6 °F 17% 29.92 in - SE 18.4 mph - N/A   Unknown
4:00 AM 73.4 °F 28.4 °F 19% 29.95 in - SE 19.6 mph - N/A   Unknown
5:00 AM 71 °F 28 °F 11% 29.90 in - SE 17.3 mph - -  
5:00 AM 71.6 °F 28.4 °F 20% 29.95 in - SE 17.3 mph - N/A   Unknown
6:00 AM 73 °F 30 °F 11% 29.92 in - SE 19.6 mph - -  
6:00 AM 73.4 °F 30.2 °F 20% 29.98 in - SE 19.6 mph - N/A   Unknown
7:00 AM 77.0 °F 30.2 °F 18% 29.98 in - ESE 24.2 mph - N/A   Unknown
8:00 AM 83 °F 32 °F 8% 29.93 in - ESE 23.0 mph - -  
8:00 AM 82.4 °F 32.0 °F 16% 29.98 in - ESE 23.0 mph - N/A   Unknown
9:00 AM 87 °F 30 °F 6% 29.94 in - ESE 23.0 mph - -  
9:00 AM 87.8 °F 30.2 °F 13% 29.98 in - ESE 23.0 mph - N/A   Unknown
10:00 AM 89.6 °F 30.2 °F 12% 29.98 in - East 19.6 mph - N/A   Unknown
11:00 AM 93 °F 28 °F 4% 29.88 in - East 18.4 mph - -  
11:00 AM 93.2 °F 28.4 °F 10% 29.95 in - East 18.4 mph - N/A   Unknown
12:00 PM 95 °F 24 °F 4% 29.85 in - SE 23.0 mph - -  
12:00 PM 95.0 °F 24.8 °F 8% 29.89 in - SE 23.0 mph - N/A   Unknown
12:12 PM 93.2 °F 26.6 °F 9% 29.89 in - ENE 13.8 mph 26.5 mph N/A   Unknown
1:00 PM 95.0 °F 24.8 °F 8% 29.86 in - SE 10.4 mph - N/A   Unknown
2:00 PM 96 °F 22 °F 4% 29.79 in - ESE 12.7 mph - -  
2:00 PM 96.8 °F 23.0 °F 7% 29.83 in - ESE 12.7 mph - N/A   Unknown
3:00 PM 97 °F 19 °F 4% 29.78 in - ESE 16.1 mph - -  
3:00 PM 96.8 °F 19.4 °F 6% 29.83 in - ESE 16.1 mph - N/A   Unknown
4:00 PM 96.8 °F 19.4 °F 6% 29.83 in - SSE 12.7 mph - N/A   Unknown
5:00 PM 96 °F 22 °F 4% 29.78 in - South 10.4 mph - -  
5:00 PM 95.0 °F 21.2 °F 7% 29.83 in - South 10.4 mph - N/A   Unknown
6:00 PM 92 °F 22 °F 4% 29.80 in - SSE 10.4 mph - -  
6:00 PM 91.4 °F 23.0 °F 8% 29.86 in - SSE 10.4 mph - N/A   Unknown
7:00 PM 87.8 °F 21.2 °F 9% 29.86 in - SSE 8.1 mph - N/A   Unknown
8:00 PM 87 °F 28 °F 5% 29.83 in - SSE 9.2 mph - -  
8:00 PM 86.0 °F 28.4 °F 12% 29.89 in - SSE 9.2 mph - N/A   Unknown
9:00 PM 83 °F 27 °F 6% 29.84 in - SSE 8.1 mph - -  
9:00 PM 82.4 °F 26.6 °F 13% 29.89 in - SSE 8.1 mph - N/A   Unknown
10:00 PM 84.2 °F 28.4 °F 13% 29.89 in - SSE 9.2 mph - N/A   Unknown
11:00 PM 82 °F 30 °F 8% 29.85 in - SSE 10.4 mph - -